Station MRHO1 - 9063079 - Marblehead, OH Image indicating link to RSS feed of recent meteorological observations for station MRHO1


Conditions at MRHO1 as of
(9:54 pm EDT on 05/26/2024)
0154 GMT on 05/27/2024:
     

Click on the graph icon in the table below to see a time series plot of the last five days of that observation.

5-day plot - Wind Direction Wind Direction (WDIR):WSW ( 240 deg true )
5-day plot - Wind Speed Wind Speed (WSPD):2.6 m/s
5-day plot - Wind Gust Wind Gust (GST):5.1 m/s
5-day plot - Atmospheric Pressure Atmospheric Pressure (PRES):1001.4 mb
5-day plot - Water Temperature Water Temperature (WTMP): 20.9 °C
5-day plot - Wind Speed at 10 Meters Wind Speed at 10 meters (WSPD10M): 3 m/s
5-day plot - Wind Speed at 20 Meters Wind Speed at 20 meters (WSPD20M): 3 m/s
5-day plot -  Wind Speed, Wind Gust and Atmospheric Pressure Combined plot of Wind Speed, Gust, and Air Pressure
NOS Water Level Observation Network Water Level
Previous observations
TIME
(EDT)
5-day plot - Wind Direction
WDIR
 
5-day plot - Wind Speed
WSPD
m/s
5-day plot - Wind Gust
GST
m/s
5-day plot - Wave Height
WVHT
m
5-day plot - Dominant Wave Period
DPD
sec
5-day plot - Average Wave Period
APD
sec
5-day plot - Mean Wave Direction
MWD
 
5-day plot - Atmospheric Pressure
PRES
mb
5-day plot - Pressure Tendency
PTDY
mb
5-day plot - Air Temperature
ATMP
°C
5-day plot - Water Temperature
WTMP
°C
5-day plot - Dew Point
DEWP
°C
5-day plot - Salinity
SAL
psu
5-day plot - Visibility
VIS
km
5-day plot - Tide (above MLLW)
TIDE
m
2024-05-26 09:48 pm SW 2.1 4.6----1001.0- 18.2 20.9 15.1---
2024-05-26 09:42 pmWSW 2.6 4.1----1000.8- 18.2 21.0 15.0---
2024-05-26 09:36 pmWSW 2.1 2.6----1000.5- 18.3 20.9 15.2---
2024-05-26 09:30 pm SW 2.1 3.1----1000.3- 18.3 21.0 15.3---
2024-05-26 09:24 pmWSW 1.5 3.6----1000.0- 18.5 21.0 15.5---
2024-05-26 09:18 pm W 2.6 6.2----1000.1-- 21.0----
2024-05-26 09:12 pm W 4.6 8.2----1000.2-- 21.0----
2024-05-26 09:06 pm W 6.2 9.3----1000.1-- 21.0----
2024-05-26 09:00 pm W 7.7 9.8----1000.1 -0.8- 21.0----
2024-05-26 08:54 pmWNW 9.3 12.4----1000.0-- 21.0----
2024-05-26 08:48 pmWNW 9.3 10.3----1000.0-- 21.0----
2024-05-26 08:42 pmWNW 5.7 7.7----999.3-- 21.0----
2024-05-26 08:36 pm W 6.7 8.8----999.6-- 21.0----
2024-05-26 08:30 pm W 4.6 7.2----1000.2- 18.1 21.0 15.2---
2024-05-26 08:24 pmWSW 3.6 6.7----1000.4- 17.9 21.0 15.2---
2024-05-26 08:18 pmWSW 4.1 6.7----1000.6-- 21.0----
2024-05-26 08:12 pm SW 4.1 9.3----1000.5-- 21.0----
2024-05-26 08:06 pmSSW 3.1 6.2----1000.6-- 21.0----
2024-05-26 08:00 pm S 4.6 7.7----1000.2 -2.1- 21.1----
2024-05-26 07:54 pm S 2.6 8.2----1000.2-- 21.0----
2024-05-26 07:48 pm-------1000.3-- 21.0----
2024-05-26 07:42 pm-------1000.5-- 21.0----
2024-05-26 07:36 pm-------1000.6-- 21.0----
2024-05-26 07:30 pm S 4.6 9.8----1000.8-- 21.1----
2024-05-26 07:24 pm S 1.5 2.6----1000.9-- 21.1----
2024-05-26 07:00 pmESE 3.6 6.2----1000.4 -3.5 20.4 21.1 16.8---
2024-05-26 06:54 pm E 5.1 6.7----1000.0- 20.6 21.1 16.8---
2024-05-26 06:48 pm E 6.2 9.3----999.7- 20.6 21.1 16.6---
2024-05-26 06:42 pm E 7.2 8.2----999.7- 20.5 21.2 16.4---
2024-05-26 06:36 pm E 6.2 8.8----999.8- 20.6 21.2 16.5---
2024-05-26 06:30 pm E 6.7 8.2----999.8-- 21.2----
2024-05-26 06:24 pm E 7.2 9.3----999.9-- 21.2----
2024-05-26 06:18 pm E 7.7 9.8----1000.1- 20.5 21.2 16.3---
2024-05-26 06:12 pm E 6.7 8.2----1000.4- 20.5 21.2 16.2---
2024-05-26 06:06 pm E 6.7 8.2----1000.6- 20.5 21.2 16.2---
2024-05-26 06:00 pm E 6.7 8.2----1000.9 -4.0 20.6 21.2 16.2---
2024-05-26 05:54 pm E 8.2 9.3----1001.1- 20.6 21.2 16.0---
2024-05-26 05:48 pm E 6.7 8.8----1001.4-- 21.2----
2024-05-26 05:42 pm E 7.2 9.8----1001.6-- 21.2----
2024-05-26 05:36 pm E 7.2 9.8----1001.7-- 21.2----
2024-05-26 05:30 pm E 8.8 9.8----1001.8- 20.4 21.2 15.5---
2024-05-26 05:24 pm E 8.2 9.8----1002.0- 20.4 21.2 15.5---
2024-05-26 05:18 pm E 8.8 10.8----1002.1- 20.5 21.2 15.5---
2024-05-26 05:12 pm E 8.8 10.8----1002.1- 20.5 21.3 15.3---
2024-05-26 05:06 pm E 9.8 10.8----1002.2- 20.5 21.3 15.2---
2024-05-26 05:00 pm-------1002.3- 20.6 21.3 15.1---
2024-05-26 04:54 pm-------1002.6- 20.5 21.3 15.1---
2024-05-26 04:48 pm E 9.3 11.8----1002.7- 20.6 21.3 15.2---
2024-05-26 04:42 pm E 9.3 11.3----1002.8- 20.6 21.3 15.2---
2024-05-26 04:36 pm E 9.8 11.3----1002.8- 20.6 21.4 15.3---
2024-05-26 04:30 pm-------1003.0- 20.6 21.4 15.2---
2024-05-26 04:24 pm-------1003.2- 20.6 21.4 15.3---
2024-05-26 04:18 pm E 9.3 10.8----1003.3- 20.7 21.4 15.5---
2024-05-26 04:12 pm E 8.2 10.3----1003.6- 20.7 21.5 15.6---
2024-05-26 04:06 pm E 8.2 10.8----1003.8- 20.6 21.5 15.5---
2024-05-26 04:00 pm E 8.8 10.3----1003.9 -4.2- 21.5----
2024-05-26 03:54 pm E 9.3 10.8----1004.0-- 21.6----
2024-05-26 03:48 pm E 9.3 10.8----1004.1-- 21.6----
2024-05-26 03:42 pm E 8.8 11.3----1004.1-- 21.6----
2024-05-26 03:36 pm E 8.8 10.3----1004.1-- 21.6----
2024-05-26 03:30 pm E 7.7 11.3----1004.2- 20.9 21.6 15.7---
2024-05-26 03:24 pm E 8.8 10.8----1004.4- 20.9 21.6 15.6---
2024-05-26 03:18 pm E 8.8 10.3----1004.5-- 21.6----
2024-05-26 03:12 pm E 8.8 9.8----1004.7-- 21.6----
2024-05-26 03:06 pm E 8.2 10.3----1004.7-- 21.6----
2024-05-26 03:00 pm E 8.8 10.3----1004.9 -4.4 21.0 21.6 15.7---
2024-05-26 02:54 pm E 7.7 9.8----1005.1- 21.1 21.6 15.9---
2024-05-26 02:48 pm-------1005.4- 21.2 21.6 16.0---
2024-05-26 02:42 pm-------1005.6- 21.2 21.6 15.9---
2024-05-26 02:36 pm-------1005.8- 21.2 21.5 16.2---
2024-05-26 02:30 pm E 6.7 8.8----1006.1- 21.1 21.5 16.1---
2024-05-26 02:24 pm E 7.2 9.3----1006.2- 21.1 21.5 16.2---
2024-05-26 02:18 pm E 7.2 8.8----1006.3- 21.1 21.5 16.1---
2024-05-26 02:12 pm E 7.2 8.8----1006.5- 21.1 21.5 16.2---
2024-05-26 02:06 pm E 7.2 8.8----1006.7- 21.0 21.5 15.9---
2024-05-26 02:00 pm E 6.7 8.2------- 21.6----
2024-05-26 01:54 pm E 6.7 8.2------- 21.5----
2024-05-26 01:48 pm E 7.2 9.3----1007.2- 21.0 21.3 16.1---
2024-05-26 01:42 pm E 6.2 7.7----1007.3- 21.0 21.4 16.1---
2024-05-26 01:36 pm E 6.2 7.7----1007.6- 20.9 21.3 16.1---
2024-05-26 01:30 pm E 6.7 8.8----1007.7-- 21.3----
2024-05-26 01:24 pm E 6.7 8.2----1007.7-- 21.3----
2024-05-26 01:18 pm E 6.7 8.2----1007.9- 20.8 21.2 16.0---
2024-05-26 01:12 pm E 6.7 7.7----1008.0- 20.8 21.0 16.0---
2024-05-26 01:06 pm E 7.2 8.2----1008.0- 20.8 20.8 16.2---
2024-05-26 01:00 pm E 7.2 8.2----1008.1 -2.0 20.7 20.8 16.1---
2024-05-26 12:54 pm E 6.7 8.2----1008.3- 20.8 20.8 16.2---
2024-05-26 12:48 pm E 6.7 8.2----1008.4- 20.7 20.9 16.1---
2024-05-26 12:42 pm E 6.7 8.2----1008.6- 20.7 20.9 16.1---
2024-05-26 12:36 pm E 6.7 7.7----1008.8- 20.7 21.0 16.1---
2024-05-26 12:30 pm E 6.2 7.7----1008.9- 20.7 21.0 16.2---
2024-05-26 12:24 pm E 6.2 7.7----1009.0- 20.6 21.1 16.0---
2024-05-26 12:18 pm E 6.2 7.2----1009.1- 20.7 21.1 16.2---
2024-05-26 12:12 pm E 5.7 7.2----1009.2- 20.7 21.0 16.3---
2024-05-26 12:06 pm E 5.7 6.7----1009.3- 20.6 20.9 16.1---
2024-05-26 12:00 pm E 5.7 6.7----1009.3 -1.5 20.7 20.9 16.3---
2024-05-26 11:54 am E 4.6 6.2----1009.5- 20.7 20.8 16.5---
2024-05-26 11:48 am E 4.6 6.2----1009.5- 20.6 21.0 16.4---
2024-05-26 11:42 amENE 5.1 6.2----1009.6- 20.6 21.0 16.5---
2024-05-26 11:36 am E 4.6 6.2----1009.7- 20.6 20.9 16.5---
2024-05-26 11:30 am E 4.6 5.7----1009.7- 20.6 20.9 16.7---
2024-05-26 11:24 am E 4.6 5.1----1009.7- 20.5 20.8 16.7---
2024-05-26 11:18 am E 4.6 5.7----1009.8- 20.5 20.8 16.8---
2024-05-26 11:12 am E 5.1 6.2----1009.7- 20.4 20.8 16.7---
2024-05-26 11:06 am E 4.6 5.7----1009.7- 20.5 20.8 17.0---
2024-05-26 11:00 am E 4.1 5.7----1009.8 -0.9 20.3 20.9 16.9---
2024-05-26 10:54 am E 4.6 6.2----1010.0- 20.3 20.9 16.9---
2024-05-26 10:48 am E 4.6 5.7----1009.9- 20.3 21.0 16.8---
2024-05-26 10:42 am E 5.1 5.7----1009.9- 20.3 20.9 16.8---
2024-05-26 10:36 am E 5.1 6.2----1010.0- 20.3 20.9 16.8---
2024-05-26 10:30 am E 4.6 6.2----1010.0- 20.3 20.9 16.8---
2024-05-26 10:24 am E 5.1 6.2----1010.1- 20.5 20.9 16.9---
2024-05-26 10:18 am E 5.7 6.2----1010.1- 20.4 20.9 16.6---
2024-05-26 10:12 am E 5.1 6.2----1010.0- 20.4 20.9 16.6---
2024-05-26 10:06 am E 4.6 5.7----1010.1- 20.3 20.9 16.5---
2024-05-26 10:00 am E 4.6 5.7----1010.1 -0.4 20.3 20.9 16.4---
2024-05-26 09:54 am E 4.6 5.7----1010.2- 20.3 20.9 16.3---
2024-05-26 09:48 am E 4.6 6.2----1010.3- 20.4 20.9 16.3---
2024-05-26 09:42 am E 4.1 5.1----1010.4- 20.4 20.8 16.2---
2024-05-26 09:36 am E 4.1 5.7----1010.5- 20.5 20.9 16.4---
2024-05-26 09:30 am E 4.1 5.7----1010.6-- 20.9----
2024-05-26 09:24 am E 4.1 5.7----1010.6-- 20.9----
2024-05-26 09:18 am E 4.1 5.7----1010.7-- 20.9----
2024-05-26 09:12 am E 4.1 5.1----1010.8-- 20.9----
2024-05-26 09:06 am E 3.6 6.2----1010.8-- 20.9----
2024-05-26 09:00 am E 3.1 6.2----1010.8 +0.0- 20.9----
2024-05-26 08:54 am E 3.6 5.7----1010.9-- 20.9----
2024-05-26 08:48 am E 4.6 6.2----1010.7- 20.1 20.9 16.1---
2024-05-26 08:42 am E 4.1 5.7----1010.6- 20.1 20.9 16.1---
2024-05-26 08:36 am E 3.6 5.7----1010.6- 20.1 20.9 16.0---
2024-05-26 08:30 am E 3.1 4.6----1010.6- 20.1 20.9 16.1---
2024-05-26 08:24 am E 2.6 5.1----1010.6- 20.0 20.9 16.0---
2024-05-26 08:18 am E 3.6 5.1----1010.6- 19.9 20.9 15.8---
2024-05-26 08:12 amESE 2.6 4.6----1010.6- 20.0 20.9 15.8---
2024-05-26 08:06 amESE 3.1 6.2----1010.6- 20.0 20.9 15.9---
2024-05-26 08:00 am-------1010.7 +0.0 20.1- 16.3---
2024-05-26 07:54 am-------1010.4- 19.9- 15.9---
2024-05-26 07:48 amESE 3.1 5.7----1010.2- 20.0 20.9 16.0---
2024-05-26 07:42 amESE 3.6 5.7----1010.3- 20.1 20.9 16.2---
2024-05-26 07:36 am E 3.6 5.7----1010.5- 20.1 20.9 16.1---
2024-05-26 07:30 amESE 3.6 6.2----1010.6- 20.1 20.9 16.0---
2024-05-26 07:24 am E 3.1 5.1----1010.6- 20.1 20.9 16.0---
2024-05-26 07:18 amESE 2.6 6.2----1010.6-- 20.9----
2024-05-26 07:12 am E 4.6 6.2----1010.5-- 20.9----
2024-05-26 07:06 am E 4.1 6.7----1010.6-- 20.9----
2024-05-26 07:00 amESE 3.6 5.7----1010.5 -0.5- 20.9----
2024-05-26 06:54 amESE 2.6 5.1----1010.5-- 20.9----
2024-05-26 06:48 amESE 3.1 4.6----1010.5-- 20.9----
2024-05-26 06:42 amESE 3.1 4.6----1010.6-- 20.9----
2024-05-26 06:36 amESE 3.1 5.7----1010.6-- 20.9----
2024-05-26 06:30 amESE 3.6 5.7----1010.5- 19.7 20.9 15.5---
2024-05-26 06:24 amESE 3.6 5.7----1010.6- 19.7 20.9 15.5---
2024-05-26 06:18 am E 3.6 5.7----1010.7-- 20.9----
2024-05-26 06:12 am E 3.1 4.6----1010.8-- 20.9----
2024-05-26 06:06 am E 2.6 4.6----1010.9-- 20.9----
2024-05-26 06:00 am E 3.6 4.6----1011.0 -0.4 20.0 20.9 15.0---
2024-05-26 05:54 am E 3.1 4.6----1011.0- 20.1 20.9 14.7---
2024-05-26 05:48 am E 4.1 5.1----1011.0- 20.1 20.9 14.5---
2024-05-26 05:42 am E 3.6 4.6----1011.0- 20.2 20.9 14.5---
2024-05-26 05:36 amENE 3.1 3.1----1011.0- 20.3 20.9 14.6---
2024-05-26 05:30 amENE 3.1 3.6----1010.8- 20.2 21.0 14.6---
2024-05-26 05:24 amENE 3.1 4.1----1010.8- 20.2 21.0 14.3---
2024-05-26 05:18 amENE 2.6 3.1----1010.8- 20.1 21.0 14.2---
2024-05-26 05:12 amENE 2.6 3.1----1010.7- 20.0 21.0 13.7---
2024-05-26 05:06 amENE 2.6 2.6----1010.7- 20.0 21.0 13.2---
2024-05-26 05:00 am NE 2.6 4.1----1010.7 -0.5 19.9 21.0 13.2---
2024-05-26 04:54 am NE 3.6 5.1----1010.6- 19.9 21.0 13.4---
2024-05-26 04:48 amNNE 4.1 5.1----1010.7-- 21.0----
2024-05-26 04:42 amNNE 3.1 4.1----1010.9-- 21.0----
2024-05-26 04:36 am N 1.5 2.6----1011.2-- 21.0----
2024-05-26 04:30 am- 0.0 1.5----1011.3- 18.5 21.0 12.9---
2024-05-26 04:24 am- 0.0 1.0----1011.2- 18.6 21.0 13.1---
2024-05-26 04:18 amWNW 0.5 1.5----1011.3- 18.8 21.0 13.6---
2024-05-26 04:12 am- 0.0 0.5----1011.3- 18.5 21.1 13.0---
2024-05-26 04:06 am- 0.0 0.5----1011.0- 18.4 21.1 13.0---
2024-05-26 04:00 am S 0.5 1.0----1011.0 +0.0 18.4 21.1 12.9---
2024-05-26 03:54 am- 0.0 0.5----1011.1- 18.4 21.1 12.8---
2024-05-26 03:48 am- 0.0 0.5----1011.2- 18.5 21.1 12.9---
2024-05-26 03:42 am- 0.0 0.5----1011.3- 18.5 21.1 13.0---
2024-05-26 03:36 am- 0.0 0.5----1011.3- 18.7 21.1 13.1---
2024-05-26 03:30 am- 0.0 0.5----1011.3- 18.9 21.1 13.2---
2024-05-26 03:24 am- 0.0 0.5----1011.4- 19.0 21.1 13.4---
2024-05-26 03:18 am W 0.5 1.0----1011.5- 18.9 21.1 13.3---
2024-05-26 03:12 am W 0.5 1.0----1011.5- 18.6 21.2 13.2---
2024-05-26 03:06 am- 0.0 0.5----1011.4- 18.7 21.2 13.1---
2024-05-26 03:00 am W 0.5 1.0----1011.4 +0.4 18.6 21.2 13.4---
2024-05-26 02:54 am- 0.0 1.0----1011.4- 18.7 21.2 13.2---
2024-05-26 02:48 am- 0.0 0.5----1011.3- 18.6 21.2 13.1---
2024-05-26 02:42 am- 0.0 0.5----1011.3- 18.9 21.2 13.6---
2024-05-26 02:36 am W 0.5 0.5----1011.2- 18.7 21.2 13.1---
2024-05-26 02:30 am W 0.5 1.0----1011.2- 18.9 21.2 13.2---
2024-05-26 02:24 amWNW 0.5 0.5----1011.1- 18.9 21.2 13.3---
2024-05-26 02:18 am W 0.5 1.0----1011.2- 19.0 21.2 13.2---
2024-05-26 02:12 amWNW 0.5 1.0----1011.3- 19.1 21.2 13.3---
2024-05-26 02:06 am W 0.5 1.0----1011.2- 19.3 21.2 13.5---
2024-05-26 02:00 am W 0.5 1.0----1011.2 +0.3 19.0 21.3 13.1---
2024-05-26 01:54 am- 0.0 0.5----1011.1- 19.1 21.3 13.6---
2024-05-26 01:48 am SE 0.5 0.5----1011.0- 19.1 21.3 13.8---
2024-05-26 01:42 am- 0.0 0.5----1011.0- 19.2 21.3 13.9---
2024-05-26 01:36 am- 0.0 0.5----1011.0- 19.2 21.3 13.9---
2024-05-26 01:30 am- 0.0 0.5----1011.1- 19.1 21.3 13.8---
2024-05-26 01:24 am- 0.0 0.0----1011.1- 19.4 21.3 14.0---
2024-05-26 01:18 am- 0.0 1.0----1011.1- 19.4 21.3 14.0---
2024-05-26 01:12 amNNW 0.5 1.5----1011.3- 19.8 21.3 14.6---
2024-05-26 01:06 am N 1.0 1.5----1011.3- 20.5 21.3 15.0---
2024-05-26 01:00 am N 1.5 1.5----1011.2 +0.9 20.5 21.3 15.0---
2024-05-26 12:54 am N 1.5 2.1----1011.1- 20.3 21.3 14.6---
2024-05-26 12:48 amNNW 0.5 1.5----1011.0- 19.6 21.2 13.7---
2024-05-26 12:42 amNNW 0.5 0.5----1011.0- 19.6 21.3 13.6---
2024-05-26 12:36 am- 0.0 0.5----1011.1- 19.8 21.2 13.7---
2024-05-26 12:30 am- 0.0 0.5----1011.1- 19.9 21.2 13.8---
2024-05-26 12:24 am E 0.5 1.0----1011.1- 20.2 21.2 14.0---
2024-05-26 12:18 am- 0.0 0.5----1011.0- 19.7 21.3 13.6---
2024-05-26 12:12 am- 0.0 0.0----1010.9- 19.8 21.3 13.6---
2024-05-26 12:06 am- 0.0 0.5----1010.9- 19.9 21.2 13.7---
2024-05-26 12:00 am- 0.0 0.5----1011.0 +1.5 19.9 21.3 13.5---
2024-05-25 11:54 pm- 0.0 0.5----1011.0- 19.9 21.3 13.5---
2024-05-25 11:48 pm- 0.0 0.5----1011.1- 20.0 21.2 13.6---
2024-05-25 11:42 pm S 0.5 1.0----1011.1- 20.0 21.3 13.4---
2024-05-25 11:36 pm- 0.0 1.0----1011.0- 20.1 21.3 13.3---
2024-05-25 11:30 pm- 0.0 0.5----1011.0- 20.3 21.2 13.4---
2024-05-25 11:24 pm- 0.0 1.5----1011.0- 20.8 21.1 14.0---
2024-05-25 11:18 pmNNE 1.5 2.1----1011.0- 21.2 21.1 14.3---
2024-05-25 11:12 pmNNE 1.5 2.1----1010.9- 21.4 21.2 14.0---
2024-05-25 11:06 pmNNE 2.1 2.1----1010.9- 21.5 21.3 13.9---
2024-05-25 11:00 pm N 2.1 2.6----1010.9 +2.0 21.6 21.4 13.8---
2024-05-25 10:54 pm N 2.6 3.1----1010.9- 21.6 21.3 13.4---
2024-05-25 10:48 pm N 3.1 3.6----1010.9- 21.8 21.3 12.7---
2024-05-25 10:42 pm N 2.6 3.1----1010.8- 21.9 21.3 12.7---
2024-05-25 10:36 pm N 3.1 4.6----1010.8- 22.0 21.2 12.4---
2024-05-25 10:30 pmNNE 4.1 4.6----1010.7- 22.2 21.3 12.1---
2024-05-25 10:24 pm N 2.6 3.6----1010.6- 22.1 21.4 12.5---
2024-05-25 10:18 pmNNE 2.6 3.1----1010.6- 22.0 21.3 12.6---
2024-05-25 10:12 pm NW 1.0 1.5----1010.4- 22.0 21.2 12.2---
2024-05-25 10:06 pmWNW 1.0 2.1----1010.4- 21.8 21.3 12.3---
2024-05-25 10:00 pmWNW 1.0 1.0----1010.3 +2.0 21.9 21.4 12.4---
2024-05-25 09:54 pmWNW 0.5 1.5----1010.2- 22.0 21.2 13.0---